UAL225 KLAX-KIAH

Flight info

Callsign UAL225
Flight time N/A
Altitude 37000
Route DOTSS2 CNERY BLH SPTFR Q4 FUSCO DIESL TTORO3
Aircraft B739/M-SDE2E3FGHIRWXY/LB1

Departure

Time 2026-05-04 07:28
Airport Los Angeles International Airport (KLAX)

Arrival

Time N/A
Airport George Bush Intercontinental Airport (KIAH)
Time Latitude Longitude Altitude Speed Heading
2026-05-04 07:12 33.94117 -118.40025 96 ft 0 kts 95°
2026-05-04 07:19 33.94118 -118.40037 96 ft 2 kts 101°
2026-05-04 07:20 33.94122 -118.40057 95 ft 2 kts 110°
2026-05-04 07:20 33.94130 -118.40074 94 ft 2 kts 136°
2026-05-04 07:20 33.94144 -118.40084 93 ft 2 kts 170°
2026-05-04 07:20 33.94152 -118.40085 93 ft 0 kts 174°
2026-05-04 07:23 33.94123 -118.40081 94 ft 11 kts 172°
2026-05-04 07:23 33.94013 -118.40064 97 ft 18 kts 173°
2026-05-04 07:23 33.93894 -118.40034 101 ft 17 kts 134°
2026-05-04 07:23 33.93889 -118.39897 103 ft 17 kts 83°
2026-05-04 07:24 33.93905 -118.39728 102 ft 22 kts 82°
2026-05-04 07:24 33.93925 -118.39544 102 ft 22 kts 82°
2026-05-04 07:24 33.93943 -118.39364 100 ft 21 kts 83°
2026-05-04 07:24 33.93961 -118.39190 100 ft 21 kts 83°
2026-05-04 07:25 33.93978 -118.39021 101 ft 20 kts 83°
2026-05-04 07:26 33.94023 -118.37996 107 ft 12 kts 174°
2026-05-04 07:27 33.93982 -118.38047 109 ft 0 kts 261°
2026-05-04 07:27 33.93975 -118.38108 109 ft 31 kts 262°
2026-05-04 07:27 33.93921 -118.38652 108 ft 98 kts 263°
2026-05-04 07:28 33.93811 -118.39683 117 ft 147 kts 262°
2026-05-04 07:28 33.93686 -118.40952 548 ft 157 kts 263°
2026-05-04 07:28 33.93557 -118.42295 1056 ft 167 kts 263°
2026-05-04 07:28 33.93419 -118.43662 1764 ft 162 kts 263°
2026-05-04 07:29 33.93280 -118.45081 2130 ft 184 kts 264°
2026-05-04 07:29 33.93002 -118.46677 2330 ft 208 kts 244°
2026-05-04 07:29 33.91999 -118.48019 2564 ft 230 kts 224°
2026-05-04 07:29 33.90774 -118.49418 2867 ft 252 kts 227°
2026-05-04 07:30 33.89627 -118.51015 3686 ft 252 kts 231°
2026-05-04 07:30 33.88506 -118.52652 4455 ft 256 kts 231°
2026-05-04 07:30 33.87352 -118.54325 5144 ft 263 kts 229°
2026-05-04 07:30 33.85920 -118.55664 5943 ft 266 kts 202°
2026-05-04 07:31 33.84087 -118.55971 6724 ft 271 kts 177°
2026-05-04 07:31 33.82222 -118.55554 7456 ft 275 kts 169°
2026-05-04 07:33 33.69033 -118.49751 11658 ft 340 kts 122°
2026-05-04 07:33 33.68129 -118.47084 12385 ft 347 kts 113°
2026-05-04 07:33 33.67355 -118.44320 13039 ft 353 kts 112°
2026-05-04 07:33 33.66567 -118.41505 13723 ft 357 kts 113°
2026-05-04 07:34 33.65748 -118.38672 14346 ft 362 kts 114°
2026-05-04 07:34 33.64899 -118.35797 14882 ft 369 kts 114°
2026-05-04 07:34 33.64331 -118.32731 15414 ft 386 kts 96°
2026-05-04 07:34 33.64324 -118.29478 16012 ft 393 kts 93°
2026-05-04 07:35 33.64364 -118.26174 16558 ft 400 kts 93°
2026-05-04 07:35 33.64406 -118.22807 17089 ft 407 kts 93°
2026-05-04 07:35 33.64436 -118.19387 17621 ft 413 kts 94°
2026-05-04 07:35 33.64453 -118.15904 18152 ft 420 kts 94°
2026-05-04 07:36 33.64460 -118.12376 18640 ft 426 kts 94°
2026-05-04 07:36 33.64461 -118.08801 19195 ft 429 kts 95°
2026-05-04 07:38 33.64419 -117.83128 22923 ft 453 kts 97°
2026-05-04 07:38 33.64346 -117.79343 23405 ft 452 kts 104°
2026-05-04 07:38 33.63655 -117.75723 23812 ft 443 kts 116°
2026-05-04 07:38 33.62747 -117.72179 24237 ft 446 kts 117°
2026-05-04 07:39 33.61811 -117.68618 24654 ft 449 kts 117°
2026-05-04 07:39 33.60874 -117.65022 25050 ft 454 kts 116°
2026-05-04 07:39 33.59944 -117.61378 25445 ft 458 kts 116°
2026-05-04 07:39 33.59021 -117.57701 25833 ft 463 kts 116°
2026-05-04 07:40 33.58096 -117.53978 26232 ft 467 kts 116°
2026-05-04 07:40 33.57181 -117.50277 26627 ft 470 kts 116°
2026-05-04 07:40 33.56247 -117.46499 26977 ft 474 kts 116°
2026-05-04 07:40 33.55305 -117.42696 27350 ft 478 kts 116°
2026-05-04 07:41 33.54352 -117.38857 27738 ft 481 kts 116°
2026-05-04 07:41 33.53398 -117.35010 28164 ft 482 kts 116°
2026-05-04 07:41 33.52438 -117.31156 28565 ft 484 kts 116°
2026-05-04 07:41 33.51466 -117.27275 28884 ft 488 kts 116°
2026-05-04 07:42 33.50528 -117.23334 29198 ft 498 kts 110°
2026-05-04 07:42 33.50199 -117.19115 29516 ft 516 kts 98°
2026-05-04 07:42 33.50169 -117.14801 29875 ft 519 kts 96°
2026-05-04 07:42 33.50182 -117.10465 30212 ft 522 kts 96°
2026-05-04 07:43 33.50190 -117.06100 30496 ft 525 kts 96°
2026-05-04 07:43 33.50175 -117.01762 30792 ft 528 kts 97°
2026-05-04 07:43 33.50136 -116.97355 31102 ft 530 kts 97°
2026-05-04 07:43 33.50078 -116.92927 31407 ft 532 kts 97°
2026-05-04 07:44 33.50009 -116.88486 31695 ft 534 kts 97°
2026-05-04 07:44 33.49981 -116.86759 31758 ft 535 kts 97°
2026-05-04 07:45 33.49941 -116.84362 31912 ft 536 kts 97°
2026-05-04 07:45 33.49867 -116.79893 32234 ft 537 kts 97°
2026-05-04 07:45 33.49792 -116.75412 32533 ft 539 kts 97°
2026-05-04 07:45 33.49719 -116.70979 32834 ft 539 kts 97°
2026-05-04 07:46 33.49645 -116.66491 33202 ft 538 kts 97°
2026-05-04 07:46 33.49569 -116.62009 33552 ft 537 kts 96°
2026-05-04 07:46 33.49491 -116.57529 33876 ft 537 kts 96°
2026-05-04 07:46 33.49410 -116.53044 34087 ft 540 kts 97°
2026-05-04 07:47 33.49324 -116.48539 34271 ft 543 kts 96°
2026-05-04 07:47 33.49244 -116.44013 34545 ft 543 kts 96°
2026-05-04 07:47 33.49166 -116.39500 34857 ft 542 kts 96°
2026-05-04 07:49 33.48678 -116.07725 36249 ft 548 kts 96°
2026-05-04 07:49 33.48770 -116.03142 36458 ft 553 kts 83°
2026-05-04 07:49 33.49732 -115.98671 36632 ft 555 kts 69°
2026-05-04 07:50 33.51072 -115.94340 36858 ft 554 kts 68°
2026-05-04 07:50 33.52446 -115.89990 36857 ft 557 kts 68°
2026-05-04 07:50 33.54665 -115.82762 36857 ft 554 kts 69°
2026-05-04 07:51 33.57210 -115.74064 36868 ft 551 kts 70°
2026-05-04 07:51 33.59716 -115.65390 36855 ft 548 kts 70°
2026-05-04 07:52 33.61857 -115.56662 36829 ft 544 kts 88°
2026-05-04 07:52 33.61683 -115.47649 36864 ft 544 kts 97°
2026-05-04 07:54 33.60603 -115.11101 36830 ft 549 kts 96°
2026-05-04 07:55 33.60351 -115.01936 36835 ft 550 kts 96°
2026-05-04 07:55 33.60090 -114.92775 36841 ft 549 kts 95°
2026-05-04 07:56 33.59823 -114.83596 36842 ft 550 kts 95°
2026-05-04 07:56 33.59383 -114.74438 36820 ft 546 kts 105°
2026-05-04 07:57 33.57769 -114.65594 36845 ft 542 kts 110°
2026-05-04 07:57 33.56011 -114.56860 36867 ft 542 kts 110°
2026-05-04 07:58 33.54288 -114.48034 36856 ft 543 kts 109°
2026-05-04 07:58 33.52603 -114.39183 36854 ft 544 kts 109°
2026-05-04 07:59 33.50922 -114.30345 36846 ft 544 kts 109°
2026-05-04 07:59 33.49229 -114.21511 36840 ft 543 kts 109°
2026-05-04 08:00 33.47542 -114.12750 36855 ft 543 kts 109°
2026-05-04 08:02 33.40699 -113.77587 36973 ft 541 kts 109°
2026-05-04 08:02 33.38855 -113.68868 36965 ft 538 kts 113°
2026-05-04 08:03 33.36521 -113.60389 36997 ft 535 kts 116°
2026-05-04 08:03 33.34080 -113.51980 36952 ft 536 kts 116°
2026-05-04 08:04 33.31680 -113.43513 36851 ft 537 kts 115°
2026-05-04 08:04 33.29332 -113.35073 36851 ft 539 kts 115°
2026-05-04 08:05 33.26967 -113.26557 36851 ft 540 kts 115°
2026-05-04 08:05 33.24583 -113.18017 36810 ft 541 kts 115°
2026-05-04 08:06 33.22188 -113.09479 36840 ft 542 kts 114°
2026-05-04 08:06 33.19799 -113.00982 36860 ft 543 kts 115°
2026-05-04 08:08 33.10092 -112.66731 36842 ft 545 kts 115°
2026-05-04 08:11 32.99387 -112.28343 36856 ft 540 kts 114°
2026-05-04 08:11 32.95872 -112.15571 36885 ft 539 kts 114°
2026-05-04 08:12 32.93535 -112.07142 36892 ft 539 kts 114°
2026-05-04 08:12 32.91179 -111.98664 36916 ft 539 kts 114°
2026-05-04 08:13 32.88815 -111.90182 36928 ft 540 kts 114°
2026-05-04 08:13 32.86441 -111.81688 36934 ft 540 kts 114°
2026-05-04 08:14 32.84078 -111.73254 36927 ft 542 kts 113°
2026-05-04 08:16 32.74463 -111.39194 36925 ft 544 kts 114°
2026-05-04 08:16 32.72050 -111.30708 36946 ft 545 kts 114°
2026-05-04 08:17 32.69620 -111.22185 36937 ft 545 kts 114°
2026-05-04 08:17 32.67186 -111.13676 36937 ft 544 kts 113°
2026-05-04 08:19 32.57454 -110.79893 36940 ft 538 kts 113°
2026-05-04 08:20 32.55019 -110.71505 36950 ft 537 kts 113°
2026-05-04 08:20 32.52587 -110.63143 36961 ft 536 kts 113°
2026-05-04 08:21 32.50151 -110.54796 36950 ft 535 kts 113°
2026-05-04 08:21 32.47716 -110.46475 36959 ft 534 kts 113°
2026-05-04 08:22 32.45272 -110.38149 36951 ft 535 kts 113°
2026-05-04 08:24 32.35408 -110.04762 36883 ft 539 kts 113°
2026-05-04 08:24 32.32922 -109.96402 36879 ft 539 kts 113°
2026-05-04 08:25 32.30429 -109.88044 36870 ft 539 kts 113°
2026-05-04 08:25 32.28604 -109.79444 36885 ft 542 kts 99°
2026-05-04 08:27 32.24503 -109.44122 36875 ft 542 kts 99°
2026-05-04 08:28 32.23410 -109.35302 36862 ft 542 kts 99°
2026-05-04 08:28 32.22323 -109.26549 36864 ft 541 kts 99°
2026-05-04 08:29 32.21226 -109.17744 36871 ft 541 kts 99°
2026-05-04 08:31 32.16802 -108.82735 36879 ft 537 kts 99°
2026-05-04 08:33 32.12305 -108.47939 36945 ft 536 kts 99°
2026-05-04 08:35 32.07707 -108.13136 36890 ft 538 kts 99°
2026-05-04 08:35 32.06539 -108.04410 36892 ft 539 kts 99°
2026-05-04 08:37 32.02599 -107.75322 36967 ft 539 kts 99°
2026-05-04 08:38 32.01205 -107.65158 36963 ft 540 kts 99°
2026-05-04 08:38 32.00198 -107.57848 36929 ft 540 kts 99°
2026-05-04 08:40 31.95335 -107.23003 36871 ft 540 kts 99°
2026-05-04 08:41 31.94103 -107.14279 36867 ft 540 kts 99°
2026-05-04 08:41 31.92864 -107.05566 36878 ft 539 kts 99°
2026-05-04 08:42 31.91619 -106.96849 36879 ft 540 kts 98°
2026-05-04 08:42 31.90368 -106.88125 36873 ft 540 kts 99°
2026-05-04 08:42 31.89742 -106.83774 37013 ft 540 kts 99°
2026-05-04 08:43 31.89112 -106.79416 37028 ft 540 kts 99°
2026-05-04 08:43 31.87855 -106.70746 37026 ft 540 kts 99°
2026-05-04 08:44 31.86582 -106.62005 37034 ft 541 kts 99°
2026-05-04 08:46 31.81438 -106.27110 37025 ft 541 kts 98°
2026-05-04 08:46 31.80344 -106.18355 36981 ft 541 kts 96°
2026-05-04 08:47 31.79362 -106.09592 36943 ft 540 kts 96°
2026-05-04 08:47 31.78367 -106.00896 36909 ft 540 kts 96°
2026-05-04 08:48 31.77327 -105.92140 36879 ft 540 kts 97°
2026-05-04 08:48 31.76271 -105.83402 36877 ft 540 kts 97°
2026-05-04 08:49 31.75209 -105.74665 36886 ft 540 kts 97°
2026-05-04 08:50 31.71468 -105.44198 36891 ft 538 kts 96°
2026-05-04 08:51 31.70386 -105.35492 36890 ft 538 kts 96°
2026-05-04 08:51 31.69298 -105.26787 36882 ft 538 kts 96°
2026-05-04 08:52 31.68206 -105.18099 36883 ft 538 kts 96°
2026-05-04 08:52 31.67106 -105.09407 36892 ft 537 kts 96°
2026-05-04 08:54 31.62668 -104.74807 36899 ft 536 kts 96°
2026-05-04 08:55 31.61545 -104.66161 36897 ft 536 kts 96°
2026-05-04 08:55 31.60413 -104.57507 36896 ft 536 kts 96°
2026-05-04 09:01 31.48185 -103.66763 36955 ft 540 kts 96°
2026-05-04 09:01 31.46985 -103.58112 36966 ft 540 kts 96°
2026-05-04 09:02 31.45861 -103.49416 36983 ft 540 kts 95°
2026-05-04 09:02 31.44826 -103.40703 36964 ft 540 kts 94°
2026-05-04 09:03 31.43784 -103.31992 36943 ft 540 kts 95°
2026-05-04 09:03 31.42720 -103.23300 36916 ft 540 kts 95°
2026-05-04 09:04 31.41639 -103.14597 36893 ft 539 kts 95°
2026-05-04 09:04 31.40552 -103.05906 36883 ft 540 kts 94°
2026-05-04 09:05 31.39463 -102.97228 36884 ft 538 kts 95°
2026-05-04 09:05 31.38372 -102.88579 36887 ft 537 kts 95°
2026-05-04 09:06 31.37276 -102.79941 36892 ft 536 kts 95°
2026-05-04 09:08 31.32844 -102.45464 36909 ft 537 kts 95°
2026-05-04 09:08 31.31716 -102.36811 36913 ft 539 kts 95°
2026-05-04 09:09 31.30579 -102.28127 36911 ft 540 kts 95°
2026-05-04 09:09 31.29440 -102.19480 36910 ft 542 kts 95°
2026-05-04 09:10 31.28285 -102.10765 36913 ft 543 kts 95°
2026-05-04 09:10 31.27123 -102.02039 36939 ft 544 kts 95°
2026-05-04 09:11 31.25952 -101.93289 36926 ft 545 kts 95°
2026-05-04 09:11 31.24774 -101.84538 36888 ft 545 kts 95°
2026-05-04 09:12 31.23591 -101.75797 36920 ft 544 kts 95°
2026-05-04 09:14 31.18827 -101.41025 36944 ft 540 kts 95°
2026-05-04 09:14 31.17638 -101.32350 36943 ft 539 kts 93°
2026-05-04 09:15 31.16855 -101.23672 36955 ft 536 kts 89°
2026-05-04 09:15 31.16264 -101.15006 36952 ft 535 kts 89°
2026-05-04 09:17 31.13257 -100.76036 36957 ft 537 kts 90°
2026-05-04 09:18 31.12557 -100.67360 36974 ft 537 kts 90°
2026-05-04 09:18 31.11851 -100.58685 36962 ft 537 kts 90°
2026-05-04 09:19 31.11139 -100.49998 36975 ft 537 kts 90°
2026-05-04 09:19 31.10421 -100.41329 36971 ft 537 kts 90°
2026-05-04 09:20 31.09697 -100.32644 36967 ft 536 kts 90°
2026-05-04 09:20 31.08972 -100.24020 36953 ft 536 kts 90°
2026-05-04 09:21 31.08237 -100.15362 36972 ft 535 kts 90°
2026-05-04 09:21 31.07499 -100.06718 36955 ft 535 kts 90°
2026-05-04 09:22 31.06754 -99.98066 36955 ft 534 kts 90°
2026-05-04 09:22 31.06010 -99.89502 36954 ft 533 kts 90°
2026-05-04 09:23 31.05258 -99.80907 36980 ft 532 kts 90°
2026-05-04 09:23 31.04501 -99.72315 36962 ft 532 kts 90°
2026-05-04 09:25 31.01557 -99.39520 36977 ft 531 kts 90°
2026-05-04 09:26 31.00775 -99.30965 37013 ft 531 kts 90°
2026-05-04 09:26 30.99988 -99.22414 37007 ft 530 kts 90°
2026-05-04 09:27 30.99193 -99.13847 37004 ft 531 kts 90°
2026-05-04 09:27 30.98393 -99.05283 37010 ft 531 kts 90°
2026-05-04 09:28 30.97588 -98.96717 36996 ft 532 kts 90°
2026-05-04 09:28 30.96781 -98.88193 36998 ft 532 kts 90°
2026-05-04 09:29 30.95892 -98.79610 37001 ft 534 kts 93°
2026-05-04 09:29 30.94682 -98.71050 36992 ft 535 kts 94°
2026-05-04 09:30 30.93419 -98.62514 37044 ft 535 kts 94°
2026-05-04 09:30 30.92201 -98.53970 37041 ft 534 kts 94°
2026-05-04 09:31 30.91016 -98.45489 37049 ft 533 kts 93°
2026-05-04 09:31 30.89819 -98.36949 37050 ft 533 kts 94°
2026-05-04 09:32 30.88616 -98.28434 37051 ft 533 kts 93°
2026-05-04 09:34 30.84429 -97.99209 37015 ft 491 kts 93°
2026-05-04 09:34 30.83867 -97.95301 37043 ft 487 kts 92°
2026-05-04 09:34 30.82737 -97.87451 37065 ft 498 kts 93°
2026-05-04 09:35 30.81557 -97.79419 37063 ft 507 kts 93°
2026-05-04 09:35 30.80353 -97.71319 37062 ft 508 kts 94°
2026-05-04 09:37 30.75522 -97.39009 37021 ft 504 kts 94°
2026-05-04 09:38 30.74310 -97.30985 37007 ft 501 kts 94°
2026-05-04 09:38 30.73105 -97.23030 37020 ft 498 kts 94°
2026-05-04 09:39 30.71902 -97.15117 37030 ft 496 kts 94°
2026-05-04 09:39 30.70705 -97.07279 37033 ft 495 kts 94°
2026-05-04 09:40 30.69496 -96.99406 37051 ft 495 kts 94°
2026-05-04 09:40 30.68279 -96.91511 37053 ft 496 kts 94°
2026-05-04 09:42 30.63317 -96.59726 37068 ft 502 kts 94°
2026-05-04 09:43 30.62053 -96.51751 37058 ft 502 kts 94°
2026-05-04 09:43 30.60747 -96.43829 37064 ft 505 kts 102°
2026-05-04 09:44 30.59388 -96.40057 37055 ft 508 kts 122°
2026-05-04 09:44 30.57356 -96.36718 37083 ft 507 kts 128°
2026-05-04 09:46 30.40528 -96.10513 36952 ft 505 kts 127°
2026-05-04 09:46 30.36035 -96.04338 36844 ft 496 kts 149°
2026-05-04 09:47 30.33127 -96.02326 36871 ft 479 kts 166°
2026-05-04 09:47 30.30020 -96.01107 36892 ft 469 kts 173°
2026-05-04 09:49 30.05079 -95.92090 37005 ft 474 kts 166°
2026-05-04 09:49 30.02152 -95.90207 37027 ft 489 kts 145°
2026-05-04 09:51 29.99285 -95.68732 37073 ft 482 kts 79°
2026-05-04 09:51 29.99363 -95.60935 37057 ft 488 kts 84°
2026-05-04 09:52 29.99304 -95.53105 37072 ft 487 kts 83°
2026-05-04 09:52 29.99327 -95.45284 37074 ft 486 kts 83°
2026-05-04 09:53 29.99343 -95.37495 37080 ft 485 kts 83°
2026-05-04 09:53 29.99359 -95.29745 37077 ft 480 kts 83°
2026-05-04 09:54 29.99419 -95.22101 37085 ft 479 kts 83°
2026-05-04 09:54 29.99498 -95.14356 37096 ft 485 kts 83°
2026-05-04 09:55 29.99590 -95.06520 37093 ft 490 kts 83°
2026-05-04 09:55 29.99688 -94.98711 37077 ft 487 kts 83°
2026-05-04 09:56 29.99785 -94.90955 37080 ft 480 kts 83°
2026-05-04 09:56 29.99906 -94.83253 37092 ft 480 kts 83°
2026-05-04 09:57 30.00037 -94.75528 37091 ft 481 kts 83°
2026-05-04 09:57 30.00172 -94.67803 37092 ft 482 kts 83°
2026-05-04 09:58 30.00308 -94.60113 37088 ft 482 kts 83°
2026-05-04 09:58 30.00458 -94.52362 37091 ft 483 kts 83°
2026-05-04 10:00 30.01218 -94.21267 37095 ft 486 kts 83°
2026-05-04 10:04 30.02810 -93.66554 37103 ft 486 kts 83°
2026-05-04 10:04 30.03056 -93.58746 37106 ft 486 kts 83°
2026-05-04 10:05 30.03299 -93.51009 37107 ft 485 kts 83°
2026-05-04 10:05 30.03544 -93.43220 37111 ft 485 kts 83°
2026-05-04 10:06 30.03789 -93.35442 37110 ft 485 kts 83°
2026-05-04 10:06 30.04033 -93.27658 37102 ft 485 kts 83°
2026-05-04 10:08 30.04885 -93.00487 37115 ft 485 kts 83°
2026-05-04 10:08 30.05130 -92.92685 37112 ft 486 kts 83°
2026-05-04 10:09 30.05377 -92.84883 37117 ft 486 kts 83°
2026-05-04 10:09 30.05624 -92.77081 37123 ft 486 kts 83°
2026-05-04 10:10 30.05871 -92.69330 37121 ft 486 kts 83°
2026-05-04 10:10 30.06117 -92.61521 37122 ft 487 kts 83°
2026-05-04 10:11 30.06358 -92.53699 37120 ft 487 kts 83°
2026-05-04 10:11 30.06598 -92.45865 37120 ft 488 kts 83°
2026-05-04 10:12 30.06840 -92.38029 37114 ft 489 kts 83°
2026-05-04 10:12 30.07082 -92.30186 37102 ft 489 kts 83°
2026-05-04 10:13 30.07281 -92.23641 37107 ft 490 kts 83°
2026-05-04 10:13 30.07552 -92.14500 37107 ft 491 kts 83°
2026-05-04 10:14 30.07746 -92.07896 37106 ft 491 kts 83°
2026-05-04 10:16 30.08650 -91.76364 37108 ft 492 kts 83°
2026-05-04 10:16 30.08864 -91.68463 37114 ft 492 kts 83°
2026-05-04 10:17 30.09076 -91.60571 37119 ft 492 kts 83°
2026-05-04 10:19 30.09919 -91.29047 37125 ft 491 kts 83°
2026-05-04 10:19 30.10128 -91.21205 37122 ft 491 kts 83°
2026-05-04 10:20 30.10339 -91.13329 37129 ft 491 kts 83°
2026-05-04 10:20 30.10554 -91.05448 37123 ft 490 kts 83°
2026-05-04 10:21 30.10773 -90.97584 37118 ft 490 kts 83°
2026-05-04 10:21 30.10993 -90.89716 37128 ft 490 kts 83°
2026-05-04 10:22 30.11335 -90.77934 37130 ft 491 kts 83°
2026-05-04 10:23 30.11582 -90.70061 37131 ft 490 kts 83°
2026-05-04 10:25 30.12588 -90.38626 37128 ft 488 kts 83°
2026-05-04 10:25 30.12839 -90.30785 37131 ft 488 kts 83°
2026-05-04 10:26 30.13087 -90.22995 37127 ft 488 kts 83°
2026-05-04 10:26 30.13336 -90.15166 37134 ft 487 kts 83°
2026-05-04 10:27 30.13583 -90.07347 37137 ft 487 kts 83°
2026-05-04 10:27 30.13831 -89.99512 37128 ft 487 kts 83°
2026-05-04 10:28 30.14077 -89.91695 37123 ft 487 kts 83°
2026-05-04 10:28 30.14320 -89.83869 37117 ft 486 kts 83°
2026-05-04 10:29 30.14560 -89.76104 37113 ft 486 kts 83°
2026-05-04 10:29 30.14800 -89.68306 37111 ft 485 kts 83°
2026-05-04 10:30 30.15039 -89.60523 37117 ft 484 kts 83°
2026-05-04 10:30 30.15276 -89.52751 37114 ft 484 kts 83°
2026-05-04 10:31 30.15512 -89.44965 37115 ft 484 kts 83°
2026-05-04 10:32 30.16337 -89.17827 37117 ft 484 kts 83°
2026-05-04 10:33 30.16572 -89.10052 37105 ft 484 kts 83°
2026-05-04 10:33 30.16804 -89.02325 37114 ft 484 kts 83°
2026-05-04 10:34 30.17039 -88.94538 37114 ft 484 kts 83°
2026-05-04 10:34 30.17275 -88.86742 37104 ft 485 kts 83°
2026-05-04 10:35 30.17512 -88.78952 37113 ft 485 kts 83°
2026-05-04 10:35 30.17751 -88.71149 37103 ft 485 kts 83°
2026-05-04 10:36 30.17991 -88.63347 37097 ft 486 kts 83°
2026-05-04 10:36 30.18230 -88.55586 37102 ft 485 kts 83°
2026-05-04 10:37 30.18469 -88.47784 37096 ft 485 kts 83°
2026-05-04 10:37 30.18710 -88.39984 37107 ft 485 kts 83°
2026-05-04 10:39 30.19561 -88.12791 37102 ft 483 kts 83°
2026-05-04 10:40 30.19802 -88.05031 37116 ft 483 kts 83°
2026-05-04 10:40 30.20043 -87.97265 37110 ft 483 kts 83°
2026-05-04 10:41 30.20284 -87.89495 37112 ft 482 kts 83°
2026-05-04 10:41 30.20521 -87.81802 37111 ft 482 kts 83°
2026-05-04 10:42 30.20760 -87.74064 37114 ft 481 kts 83°
2026-05-04 10:42 30.20997 -87.66312 37121 ft 481 kts 83°
2026-05-04 10:43 30.21230 -87.58578 37115 ft 481 kts 83°
2026-05-04 10:45 30.22148 -87.27659 37120 ft 482 kts 83°
2026-05-04 10:45 30.22366 -87.19899 37111 ft 483 kts 83°
2026-05-04 10:46 30.22581 -87.12139 37117 ft 483 kts 83°
2026-05-04 10:46 30.22795 -87.04376 37113 ft 483 kts 83°
2026-05-04 10:47 30.23007 -86.96608 37116 ft 483 kts 83°
2026-05-04 10:47 30.23215 -86.88893 37111 ft 483 kts 83°